Wind_Speed
84 83 77 72 70 68 67 69 59 54 52 53 49 47 51 48 47 43 42 43 41 40 39 38 37 34 29 28 28 25 19 18 16 16 13 14 15 15 17 16 11 11 13 15 13
95 89 81 76 79 74 70 71 63 58 61 56 53 45 50 48 49 46 44 44 43 41 39 37 40 39 36 34 31 31 26 21 21 19 20 18 17 17 13 12 10 12 13 15 18
90 98 85 86 88 80 73 75 63 61 65 63 55 52 51 50 49 47 46 45 45 45 42 40 39 40 41 37 36 35 32 29 24 25 24 23 21 22 18 14 13 13 14 15 16
99 99 99 94 86 88 82 81 72 64 64 72 59 57 54 51 52 51 55 51 47 45 45 44 43 41 41 39 38 39 36 34 31 30 30 29 28 27 26 19 16 14 13 17 20
101 101 99 99 94 96 91 95 82 77 69 70 66 62 57 55 56 54 55 52 51 49 49 48 46 45 41 41 41 37 35 36 37 33 31 34 33 33 30 29 25 19 21 20 20
105 103 102 103 100 104 103 99 90 88 81 77 67 67 63 66 62 59 58 57 54 55 51 49 49 48 44 40 42 39 36 39 42 34 37 35 35 35 35 36 35 27 25 26 27
109 106 104 104 104 105 107 99 93 93 90 88 82 72 68 75 68 65 66 65 62 60 56 53 52 51 49 45 46 45 44 41 41 43 38 36 36 35 39 39 39 41 36 33 33
112 111 109 106 107 106 107 106 105 103 101 94 91 79 80 73 72 71 68 67 62 66 64 56 56 54 47 49 49 48 47 44 45 47 49 44 43 41 39 41 42 41 42 44 42
115 113 111 111 110 109 107 108 108 104 102 101 96 90 92 80 74 72 73 74 67 67 68 62 54 57 57 54 51 51 50 48 49 49 48 48 48 43 45 45 42 45 46 46 40
115 115 115 114 114 112 110 107 107 105 102 101 96 90 91 92 87 81 79 74 72 73 69 67 60 62 60 62 62 57 54 57 54 52 50 48 51 47 50 48 51 51 48 46 44
120 116 116 116 117 115 113 110 104 100 99 96 95 96 96 90 89 85 86 84 83 82 79 74 71 65 67 65 62 62 62 59 60 59 49 51 53 52 49 51 49 48 46 47 48
107 119 118 116 117 117 115 109 106 105 104 105 103 99 94 92 91 89 85 84 82 84 88 91 78 78 77 69 67 65 64 65 62 60 55 57 56 56 51 50 55 52 52 49 50
107 107 116 119 117 118 113 114 114 110 106 105 102 100 98 94 93 89 85 83 82 81 87 89 84 89 87 79 78 72 69 68 63 63 57 56 54 54 56 55 53 55 52 51 52
107 108 107 115 121 114 111 115 117 116 113 106 102 97 98 99 92 93 88 86 84 81 82 84 85 87 86 78 73 73 72 73 72 67 60 58 56 63 63 60 59 57 60 61 59
102 107 110 110 111 120 112 115 117 118 121 112 107 100 99 95 94 94 93 91 87 86 81 76 80 86 83 75 78 73 74 74 75 72 65 63 63 64 70 69 65 64 64 66 65
102 103 108 109 108 104 119 123 119 121 117 112 109 103 102 96 94 96 93 92 90 89 84 80 75 78 76 74 74 75 78 77 77 76 72 70 69 63 72 72 72 71 71 73 71
106 105 107 108 106 106 113 126 124 119 108 107 103 103 104 101 99 99 94 91 91 89 86 85 82 81 79 76 77 76 79 82 80 78 72 76 73 68 72 74 75 73 76 75 76
110 109 106 106 108 109 110 110 122 115 110 103 100 102 103 104 102 100 96 92 90 88 87 87 83 80 80 79 79 78 78 79 82 80 78 76 72 76 79 79 77 77 77 75 78
108 113 106 104 110 112 108 110 104 101 112 109 106 104 101 99 98 98 97 95 92 90 91 89 86 86 85 83 82 80 77 81 80 82 84 80 80 85 86 84 85 84 85 84 83
105 109 107 104 105 112 113 110 95 95 99 107 115 108 102 101 98 97 97 94 93 94 94 92 89 87 86 85 84 82 81 81 81 79 83 82 82 86 86 87 90 89 87 87 89
103 102 108 105 107 111 110 103 102 100 100 94 95 108 110 102 100 98 96 93 93 94 94 92 90 89 90 88 88 85 82 82 81 80 78 78 78 84 86 84 85 88 91 90 85
101 100 107 108 111 106 105 102 97 100 99 91 87 87 93 105 108 102 96 98 96 94 91 93 93 91 92 90 89 87 84 83 81 81 81 78 74 79 81 81 82 82 83 81 82
98 100 108 111 113 102 101 96 96 103 100 94 89 85 81 82 87 97 103 103 99 96 94 95 90 91 90 90 91 89 89 87 85 82 78 79 76 84 83 81 79 78 78 81 83
103 104 109 111 106 100 92 91 92 96 94 90 87 83 79 76 73 75 81 89 97 102 102 100 96 93 91 92 89 86 87 89 87 81 83 79 81 82 85 82 81 81 82 83 86
103 107 110 109 108 102 100 94 91 90 90 90 87 82 78 81 73 69 68 69 72 79 87 94 96 98 97 94 91 90 89 88 85 85 84 86 83 87 85 83 81 81 82 83 85
104 106 108 105 102 101 95 90 89 72 75 77 81 76 75 73 68 67 70 67 68 65 64 66 71 79 87 91 92 92 92 90 87 87 84 86 85 91 86 83 83 83 84 86 86
101 106 106 104 99 99 94 82 76 81 77 76 75 78 77 63 66 65 62 62 60 59 60 60 60 61 66 69 73 76 85 90 93 92 89 86 87 87 85 82 82 84 85 85 87
Wind_Direction
225 226 231 232 233 229 238 231 236 234 239 235 238 237 237 237 240 242 242 244 244 246 246 247 251 251 250 256 259 263 260 266 264 271 283 292 303 321 321 325 329 345 337 337 335
223 223 224 227 232 228 232 228 235 233 239 235 234 233 233 237 242 245 243 240 243 247 248 249 248 250 248 251 254 261 262 263 268 263 273 280 288 305 318 322 317 324 330 332 334
227 229 225 222 225 223 228 229 230 232 240 233 230 234 230 237 241 244 243 243 245 246 246 249 250 250 251 247 253 254 261 263 262 264 257 268 272 288 298 307 311 308 309 319 328
230 232 231 223 223 227 221 226 229 230 238 229 236 236 230 239 245 249 247 246 244 245 246 248 251 254 254 251 250 254 256 258 261 260 264 264 267 273 283 289 293 296 303 308 313
231 231 233 233 230 226 226 230 231 241 233 229 227 232 232 238 247 251 243 244 249 246 245 245 250 253 253 252 254 251 255 259 262 263 271 266 264 271 272 278 285 280 282 292 302
232 232 233 232 233 232 230 227 230 235 236 229 229 234 240 243 246 246 237 244 248 247 246 245 248 250 252 255 254 248 258 262 256 253 264 269 267 270 267 270 271 282 282 287 294
231 232 232 234 233 233 234 234 234 226 228 230 241 238 243 242 241 241 238 243 247 248 251 249 250 249 249 251 254 253 261 261 263 256 260 263 267 272 272 273 281 275 278 286 291
231 232 232 233 234 234 235 234 238 235 233 238 243 244 239 241 238 236 243 242 248 247 250 247 253 252 251 249 252 254 259 261 263 262 261 263 267 267 269 271 276 280 281 282 282
232 232 232 232 232 233 235 235 236 238 238 242 243 245 247 238 236 236 240 243 252 249 250 248 250 254 254 254 254 255 258 261 263 263 266 263 262 267 267 266 269 278 286 280 283
231 232 232 232 232 233 233 234 236 238 237 240 243 244 246 246 245 239 241 244 244 253 252 244 250 255 252 255 255 257 259 263 263 264 266 264 266 268 266 268 272 279 279 276 286
231 231 232 232 233 233 233 234 236 238 238 239 239 240 244 244 246 244 243 244 248 252 253 248 252 251 249 250 256 258 259 258 262 264 263 264 266 266 265 271 275 280 277 275 284
231 231 231 232 233 233 233 236 236 236 236 239 239 240 241 242 245 245 246 248 249 248 248 249 250 252 249 255 258 259 258 257 259 259 260 266 269 266 263 267 278 277 275 280 285
231 232 230 231 233 233 233 234 236 236 235 237 238 240 241 243 244 244 244 247 248 251 248 248 251 254 258 259 262 260 256 253 255 258 260 263 264 266 264 267 274 276 278 278 283
230 231 231 231 232 232 233 234 235 236 235 235 238 239 241 242 245 246 246 246 247 249 249 249 253 254 256 257 256 259 254 254 256 256 260 259 260 265 267 268 269 274 277 279 281
228 229 231 231 231 230 231 233 234 236 235 235 236 238 241 242 243 245 245 246 247 248 249 250 251 253 255 256 260 258 261 259 252 253 253 259 257 262 267 270 271 273 275 282 282
226 227 230 230 231 232 232 232 232 233 233 235 237 239 241 242 243 245 245 247 248 249 250 251 252 253 254 255 255 253 253 254 252 253 254 257 258 258 263 271 271 271 275 282 284
222 225 226 229 229 228 232 232 233 233 233 234 236 237 239 241 242 245 245 245 248 249 249 250 250 252 254 255 256 255 254 254 256 257 254 256 262 260 262 267 270 271 275 279 281
222 222 224 226 228 227 232 233 233 231 232 233 234 236 238 240 241 243 245 246 247 248 250 250 251 252 253 255 258 258 257 255 253 255 257 259 263 262 265 268 270 272 276 276 278
220 221 222 224 225 228 230 233 233 234 235 233 234 235 237 239 240 242 244 245 246 248 249 249 251 251 253 255 258 259 258 256 255 255 255 259 257 257 262 264 267 270 273 277 279
218 220 220 223 223 227 228 231 233 232 233 232 233 234 235 238 239 241 243 244 245 246 247 248 249 251 253 255 257 257 256 257 256 256 255 256 259 260 263 265 266 269 271 274 277
216 217 220 221 223 224 227 229 230 232 234 233 233 235 236 237 239 241 243 244 245 247 247 249 250 250 252 253 254 256 258 259 259 259 258 258 259 260 262 265 266 268 270 273 275
213 213 218 219 223 220 224 226 229 233 234 232 231 232 234 237 238 240 242 244 246 247 249 250 251 252 252 254 255 257 257 258 258 257 258 260 263 263 264 265 266 268 271 273 273
210 210 215 218 221 220 222 223 225 232 233 232 232 231 232 234 237 239 242 244 246 248 249 249 251 252 254 255 254 254 256 257 258 259 262 261 260 262 263 266 268 271 273 273 274
206 206 212 216 217 219 218 219 224 229 233 236 235 234 234 235 237 239 242 244 246 248 250 251 251 253 253 253 256 256 257 258 259 261 260 263 263 264 266 267 270 271 271 273 275
204 206 210 213 214 214 216 218 224 228 234 237 237 237 238 240 239 239 244 246 247 247 249 250 252 253 254 255 255 256 257 259 260 260 262 262 264 265 265 267 269 271 272 272 274
204 206 210 211 213 213 214 216 219 219 224 229 236 237 239 236 234 237 239 242 245 248 252 253 254 254 256 256 256 257 257 259 259 260 261 261 263 263 267 268 269 270 271 271 272
202 206 209 209 208 212 211 206 211 216 226 230 231 233 232 232 233 236 240 243 247 250 253 256 257 257 257 258 259 260 259 258 259 260 261 261 262 265 266 267 268 268 268 269 269
Height
10766 10776 10783 10791 10797 10803 10809 10815 10822 10827 10834 10838 10842 10847 10852 10856 10860 10864 10869 10872 10875 10879 10882 10885 10887 10889 10891 10893 10893 10895 10896 10898 10899 10899 10898 10896 10896 10896 10895 10894 10893 10892 10891 10890 10890
10750 10759 10766 10777 10783 10790 10797 10803 10811 10816 10824 10829 10833 10838 10844 10848 10852 10857 10861 10864 10868 10872 10875 10878 10880 10883 10885 10888 10889 10889 10892 10893 10894 10895 10895 10895 10893 10893 10893 10892 10890 10889 10888 10887 10887
10731 10741 10751 10761 10769 10775 10784 10792 10798 10804 10812 10818 10822 10829 10834 10839 10843 10851 10852 10856 10860 10864 10867 10870 10873 10876 10879 10882 10884 10886 10887 10888 10890 10890 10891 10891 10891 10890 10890 10889 10888 10886 10885 10883 10882
10713 10722 10733 10745 10752 10761 10766 10778 10785 10791 10800 10805 10811 10817 10823 10829 10833 10839 10844 10848 10853 10856 10860 10862 10866 10868 10871 10875 10878 10880 10882 10883 10884 10884 10885 10886 10886 10887 10886 10886 10884 10882 10881 10880 10878
10693 10704 10714 10725 10733 10743 10753 10763 10771 10779 10786 10793 10799 10806 10812 10816 10823 10830 10835 10839 10844 10848 10851 10853 10857 10861 10864 10867 10871 10874 10876 10877 10878 10879 10880 10881 10881 10881 10882 10882 10880 10879 10878 10876 10875
10672 10683 10695 10706 10715 10725 10735 10745 10755 10763 10772 10781 10787 10795 10801 10803 10814 10818 10824 10829 10835 10840 10843 10845 10849 10853 10857 10860 10863 10866 10868 10870 10873 10874 10873 10875 10876 10876 10877 10877 10876 10875 10873 10872 10870
10652 10664 10675 10685 10696 10707 10716 10727 10737 10747 10758 10765 10773 10781 10787 10791 10803 10806 10812 10817 10824 10829 10833 10837 10841 10846 10850 10853 10855 10858 10861 10863 10866 10867 10866 10869 10869 10870 10869 10869 10870 10869 10868 10866 10864
10631 10643 10655 10665 10676 10687 10698 10710 10720 10731 10740 10749 10757 10766 10769 10785 10787 10791 10799 10807 10813 10818 10823 10828 10833 10838 10841 10845 10847 10849 10852 10855 10856 10858 10860 10862 10860 10862 10862 10861 10862 10862 10861 10860 10860
10610 10622 10636 10645 10656 10667 10679 10691 10702 10714 10725 10734 10744 10750 10754 10769 10771 10779 10787 10794 10802 10808 10813 10817 10823 10828 10831 10834 10837 10839 10844 10847 10848 10849 10852 10854 10851 10856 10853 10853 10854 10854 10855 10852 10852
10585 10600 10613 10622 10635 10648 10660 10671 10684 10698 10711 10719 10727 10734 10737 10747 10758 10767 10772 10780 10787 10794 10802 10807 10812 10817 10819 10821 10823 10831 10835 10836 10837 10841 10844 10845 10842 10848 10846 10844 10843 10845 10846 10844 10844
10560 10573 10589 10600 10613 10625 10641 10653 10668 10682 10692 10697 10701 10712 10719 10731 10740 10751 10760 10767 10775 10783 10790 10794 10801 10806 10801 10806 10815 10819 10822 10825 10824 10830 10835 10834 10835 10835 10839 10834 10834 10835 10836 10836 10835
10535 10549 10565 10578 10590 10604 10620 10642 10648 10654 10664 10671 10685 10697 10707 10715 10726 10735 10743 10753 10759 10767 10773 10782 10791 10783 10790 10799 10804 10807 10811 10810 10811 10817 10825 10823 10827 10824 10829 10827 10823 10825 10826 10827 10825
10512 10526 10540 10555 10565 10581 10606 10615 10616 10629 10642 10653 10668 10681 10690 10704 10711 10719 10730 10736 10743 10751 10757 10766 10769 10771 10780 10787 10790 10792 10796 10796 10801 10803 10811 10815 10819 10814 10815 10817 10816 10812 10814 10816 10815
10488 10503 10519 10531 10539 10569 10588 10585 10595 10606 10616 10640 10656 10668 10678 10682 10700 10702 10714 10720 10730 10735 10738 10752 10756 10758 10764 10769 10772 10777 10778 10783 10790 10795 10800 10804 10811 10802 10800 10804 10805 10805 10802 10803 10804
10463 10480 10492 10504 10526 10541 10561 10558 10572 10582 10594 10620 10636 10649 10658 10676 10677 10686 10693 10707 10716 10717 10727 10739 10737 10744 10752 10755 10758 10764 10765 10772 10776 10781 10787 10790 10794 10797 10785 10788 10793 10793 10790 10790 10791
10438 10455 10468 10486 10502 10524 10529 10524 10543 10552 10580 10607 10622 10639 10641 10658 10660 10665 10680 10690 10698 10704 10716 10721 10725 10730 10735 10738 10743 10746 10750 10753 10760 10766 10776 10775 10776 10792 10776 10773 10777 10779 10777 10776 10775
10409 10426 10445 10461 10483 10495 10494 10508 10516 10535 10576 10595 10611 10618 10622 10632 10642 10648 10664 10675 10682 10688 10698 10699 10709 10713 10718 10723 10725 10730 10732 10738 10746 10752 10761 10760 10765 10773 10762 10762 10762 10765 10764 10762 10760
10383 10398 10420 10442 10461 10470 10473 10483 10489 10542 10555 10577 10590 10594 10607 10612 10629 10636 10648 10660 10667 10673 10677 10685 10695 10697 10700 10705 10707 10716 10722 10728 10731 10736 10742 10746 10753 10749 10746 10750 10750 10748 10748 10748 10747
10359 10378 10397 10421 10436 10445 10459 10456 10494 10528 10541 10555 10565 10576 10588 10598 10611 10616 10630 10639 10648 10656 10660 10666 10677 10678 10685 10689 10694 10702 10708 10707 10715 10721 10728 10731 10734 10732 10732 10733 10735 10735 10733 10733 10732
10339 10359 10386 10397 10415 10425 10434 10454 10488 10502 10510 10527 10544 10557 10570 10579 10590 10597 10607 10624 10629 10635 10639 10649 10659 10663 10669 10675 10681 10686 10686 10691 10697 10704 10709 10718 10719 10715 10714 10717 10718 10717 10717 10717 10715
10319 10349 10367 10380 10388 10399 10419 10452 10468 10479 10489 10509 10529 10542 10553 10566 10572 10584 10593 10603 10608 10614 10622 10635 10641 10647 10651 10661 10661 10668 10674 10675 10680 10690 10694 10699 10702 10694 10695 10699 10698 10699 10699 10699 10698
10305 10334 10342 10355 10356 10381 10412 10437 10451 10459 10473 10492 10509 10521 10532 10545 10557 10566 10579 10579 10591 10600 10612 10614 10624 10633 10635 10642 10647 10653 10658 10660 10663 10667 10674 10682 10688 10676 10676 10679 10680 10680 10682 10682 10680
10292 10315 10320 10326 10338 10376 10400 10420 10431 10441 10459 10476 10487 10500 10516 10530 10539 10550 10556 10564 10576 10583 10592 10594 10613 10614 10620 10627 10627 10632 10636 10641 10647 10654 10663 10666 10671 10655 10659 10662 10665 10667 10667 10663 10660
10265 10281 10292 10304 10338 10365 10387 10404 10417 10428 10445 10462 10473 10486 10505 10517 10530 10534 10541 10550 10558 10565 10572 10580 10592 10599 10601 10602 10611 10622 10622 10624 10630 10642 10639 10649 10643 10642 10639 10648 10651 10651 10648 10644 10640
10246 10260 10275 10294 10319 10352 10371 10393 10408 10422 10435 10447 10460 10480 10494 10503 10515 10523 10529 10536 10539 10545 10554 10563 10573 10577 10580 10590 10595 10602 10604 10607 10617 10619 10625 10622 10629 10620 10623 10630 10634 10632 10629 10625 10622
10229 10248 10268 10292 10319 10338 10359 10378 10397 10411 10424 10439 10452 10465 10476 10490 10502 10503 10507 10517 10522 10534 10542 10550 10554 10559 10563 10569 10576 10582 10586 10591 10596 10597 10604 10605 10609 10597 10610 10615 10614 10614 10611 10606 10605
10220 10235 10252 10280 10306 10322 10351 10381 10394 10402 10412 10422 10432 10446 10460 10471 10480 10488 10502 10510 10518 10524 10530 10536 10539 10544 10546 10551 10558 10567 10561 10565 10571 10577 10583 10588 10585 10583 10589 10594 10594 10592 10592 10590 10587